Tracking 18852 objects as of 23-Nov-2017
HD Live streaming from Space Station
objects crossing your sky now

FENGYUN 1C DEB

Track FENGYUN 1C DEB now!
10-day predictions


NORAD ID: 41015
Int'l Code: 1999-025EXV
Perigee: 471.0 km
Apogee: 689.0 km
Inclination: 99.2 °
Period: 96.1 minutes
Semi major axis: 6950 km
RCS: Unknown
Launch date: May 10, 1999
Source: People's Republic of China (PRC)
Launch site: Taiyaun Space Center, China (TSC)

Note: This is SATELLITE DEBRIS
aabbcc
Your satellite tracking list
Your tracking list is empty




NASA's NSSDC Master Catalog

Two Line Element Set (TLE):
1 41015U 99025EXV 17326.72369308  .00013372  00000-0  88057-3 0  9990
2 41015  99.2390 283.8958 0156807 124.4894 237.1248 14.98072273119851
Source of the keplerian elements: AFSPC